Regional Weather Roundup
Issued by NWS Cleveland, OH

Home | Current Version | Previous Version | Text Only | Print | Product List | Glossary Off
Versions: 1 2 3 4 5 6 7 8 9 10 11 12 13 14 15 16 17 18 19 20 21 22 23 24 25 26 27 28 29 30 31 32 33 34 35 36 37 38 39 40 41 42 43 44 45 46 47 48 49 50

724
ASUS41 KCLE 162102
RWRCLE
OHIO REGIONAL WEATHER ROUNDUP
NATIONAL WEATHER SERVICE CLEVELAND, OH
500 PM EDT WED AUG 16 2017

NOTE: "FAIR" INDICATES FEW OR NO CLOUDS BELOW 12,000 FEET WITH NO
SIGNIFICANT WEATHER AND/OR OBSTRUCTIONS TO VISIBILITY.

OHZ001>008-015>018-024>027-034-035-043-044-162200-
   NORTHWEST OHIO

CITY           SKY/WX    TMP DP  RH WIND       PRES   REMARKS
DEFIANCE       MOSUNNY   87  64  46 E8        29.97F
FINDLAY        PTSUNNY   87  65  47 NE8       29.98F
TOLEDO EXPRESS SUNNY     86  62  44 CALM      29.98F
TOLEDO EXEC    SUNNY     83  66  56 E12       30.01F
LIMA           CLOUDY    84  69  60 CALM      29.99F
$$

OHZ009>014-019>023-028>033-038-089-162200-
   NORTHEAST OHIO

CITY           SKY/WX    TMP DP  RH WIND       PRES   REMARKS
CLE-HOPKINS    MOSUNNY   85  55  35 NE13      30.05F
CLE-LAKEFRONT  SUNNY     78  62  57 NE13      30.02F
CUY CO. ARPT   SUNNY     82  63  51 NE12      30.05F
LORAIN-ELYRIA  SUNNY     81  56  42 NE9       30.03F
ASHTABULA      SUNNY     78  57  48 VRB5      30.08S
AKRON-CANTON   MOSUNNY   85  60  42 E8        30.04F
WOOSTER        SUNNY     83  61  47 CALM      30.04F
MANSFIELD      MOSUNNY   84  66  54 E6        30.03F
YOUNGSTOWN     MOSUNNY   82  57  42 NW5       30.06F
$$

OHZ042-051>053-060>062-070>072-077>081-162200-
  SOUTHWEST OHIO

CITY           SKY/WX    TMP DP  RH WIND       PRES   REMARKS
CINC-COVINGTON MOSUNNY   90  70  51 W5        29.97F HX  95
CINC-LUNKEN    MOSUNNY   87  72  60 S7        29.96F HX  93
HAMILTON       PTSUNNY   92  70  48 VRB3      29.96F HX  97
DAYTON         MOSUNNY   88  64  44 W5        29.99F
WRIGHT-PAT AFB NOT AVBL
DAYTON GENERAL PTSUNNY   88  66  48 S8        29.97F HX  90
WILMINGTON     MOSUNNY   86  69  56 S3        29.99F HX  90
$$

OHZ036-037-039>041-045>050-054>059-063>069-073>076-082>088-162200-
  CENTRAL AND SOUTHEAST OHIO

CITY           SKY/WX    TMP DP  RH WIND       PRES   REMARKS
COLUMBUS       PTSUNNY   84  72  67 E8        29.98F
OSU AIRPORT    MOSUNNY   89  65  44 SW6       29.99F HX  91
BOLTON FIELD   MOSUNNY   86  70  58 SW3       30.00F HX  90
RICKENBACK AFB SUNNY     88  67  49 CALM      29.98F HX  91
NEWARK         SUNNY     85  69  58 E6        30.00F
MARION         PTSUNNY   86  65  49 CALM      30.01F
LANCASTER      MOSUNNY   88  68  51 S7        30.00F HX  91
ZANESVILLE     CLOUDY    84  67  56 NE6       30.01F
NEW PHILLY     NOT AVBL
$$




USA.gov is the U.S. government's official web portal to all federal, state and local government web resources and services.